Regional Weather Roundup
Issued by NWS

Home | Current Version | Previous Version | Text Only | Print | Product List | Glossary On
Versions: 1 2 3 4 5 6 7 8 9 10 11 12 13 14 15 16 17 18 19 20 21 22 23 24 25 26 27 28 29 30 31 32 33 34 35 36 37 38 39 40 41 42 43 44 45 46 47 48 49 50
000
ASUS43 KLMK 092110
RWRKY
KENTUCKY REGIONAL WEATHER ROUNDUP
NATIONAL WEATHER SERVICE LOUISVILLE KY
400 PM EST FRI DEC 09 2016

NOTE "FAIR" INDICATES FEW OR NO CLOUDS BELOW 12,000 FEET
WITH NO SIGNIFICANT WEATHER AND/OR OBSTRUCTIONS TO VISIBILITY.

KYZ001>023-026-027-061>063-070>075-092200-
WESTERN AND SOUTH CENTRAL KENTUCKY

CITY           SKY/WX    TMP DP  RH WIND       PRES   REMARKS
PADUCAH        SUNNY     34  14  43 VRB7      30.58F WCI  28
HENDERSON      PTSUNNY   30  12  47 W10       30.59R WCI  21
OWENSBORO      PTSUNNY   29  16  58 W3        30.59S
HOPKINSVILLE   SUNNY     32  16  51 NW8       30.56S WCI  25
BOWLING GREEN  SUNNY     34  15  46 CALM      30.56S
GLASGOW        SUNNY     32  16  52 W7        30.54R WCI  26
$$

KYZ024-025-028>034-038-045-046-053-092200-
NORTH CENTRAL KENTUCKY

CITY           SKY/WX    TMP DP  RH WIND       PRES   REMARKS
LOUISVILLE/SDF CLOUDY    28  12  51 W8        30.57R WCI  20
LOUISVILLE/LOU CLOUDY    27  13  55 W5        30.57S WCI  22
FORT KNOX      CLOUDY    26  14  61 W6        30.54R WCI  19
$$

KYZ035>037-039>044-047>052-055>060-089>105-092200-
NORTHEAST KENTUCKY

CITY           SKY/WX    TMP DP  RH WIND       PRES   REMARKS
LEXINGTON      CLOUDY    24  12  60 SW6       30.53R WCI  17
COVINGTON      FLURRIES  25  13  60 W9        30.52R WCI  15
FRANKFORT      CLOUDY    25  12  58 W3        30.54R
$$

KYZ054-064>069-076>088-106>120-092200-
SOUTHEAST KENTUCKY

CITY           SKY/WX    TMP DP  RH WIND       PRES   REMARKS
JACKSON        MOSUNNY   27  13  55 VRB3      30.48S
LONDON         MOSUNNY   28  13  53 W5        30.50R WCI  23
SOMERSET       MOSUNNY   28  14  54 W5        30.55S WCI  23
MIDDLESBORO    SUNNY     31  15  51 CALM      30.50R
MONTICELLO     CLEAR     30  17  58 W6        30.55R WCI  24
$$




USA.gov is the U.S. government's official web portal to all federal, state and local government web resources and services.